Tracking 29892 objects as of 21-Nov-2024
HD Live streaming from Space Station
objects crossing your sky now

STARLINK-1693

Track STARLINK-1693 now!
10-day predictions
STARLINK-1693 is classified as:


NORAD ID: 46543
Int'l Code: 2020-070M
Perigee: 508.9 km
Apogee: 518.1 km
Inclination: 53.1 °
Period: 94.7 minutes
Semi major axis: 6884 km
RCS: Unknown
Launch date: October 6, 2020
Source: United States (US)
Launch site: AIR FORCE EASTERN TEST RANGE (AFETR)
Your satellite tracking list
Your tracking list is empty




NASA's NSSDC Master Catalog

Two Line Element Set (TLE):
1 46543U 20070M   24325.89687870  .00024115  00000-0  11220-2 0  9991
2 46543  53.0561 137.7669 0006664 151.0506 209.0860 15.19824404228176
Source of the keplerian elements: AFSPC